Weather reports worldwide

Advertisment
Brownsville/Int., United States of America (72250): temperature & dewpoint: 14.06.2018 04:00:00 - 20.06.2018 04:00:00 (CDT)Brownsville/Int., United States of America (72250): wind speed & gusts: 14.06.2018 04:00:00 - 20.06.2018 04:00:00 (CDT)Brownsville/Int., United States of America (72250): wind direction: 14.06.2018 04:00:00 - 20.06.2018 04:00:00 (CDT)Brownsville/Int., United States of America (72250): reduced air pressure: 14.06.2018 04:00:00 - 20.06.2018 04:00:00 (CDT)Brownsville/Int., United States of America (72250): visibility: 14.06.2018 04:00:00 - 20.06.2018 04:00:00 (CDT)Brownsville/Int., United States of America (72250): precipitation: 14.06.2018 04:00:00 - 20.06.2018 04:00:00 (CDT)
Date & Time tt [°C] td [°C] ff [km/h] ff [kn] fx [km/h] fx [kn] dd ppp [hPa] vv [km] rr [mm]
20.06.2018 04:00:00 28,3 26,7 31 17 - - S 1006,5 16 -
20.06.2018 03:00:00 28,3 26,7 28 15 - - S 1006,8 16 -
20.06.2018 02:00:00 28,3 27,2 22 12 - - SSE 1007,0 16 -
20.06.2018 01:00:00 25,6 24,4 8 4 - - SE 1008,0 16 -
20.06.2018 00:00:00 25,6 23,9 9 5 - - S 1008,7 16 -
19.06.2018 23:00:00 25,6 23,9 22 12 - - SE 1008,6 16 -
19.06.2018 22:00:00 27,8 27,2 18 10 - - SE 1007,6 16 0,5
19.06.2018 21:00:00 25,6 25,0 11 6 - - E 1007,6 16 0,3
19.06.2018 20:00:00 25,0 23,9 8 4 - - SE 1008,0 16 2,8
19.06.2018 19:00:00 26,1 23,3 0 0 52 28 N 1008,0 16 1,0
19.06.2018 18:00:00 25,6 23,9 15 8 - - W 1008,6 16 0,3
19.06.2018 17:00:00 30,6 24,4 16 9 - - WNW 1007,8 16 -
19.06.2018 16:00:00 32,2 25,0 26 14 - - SE 1006,6 16 -
19.06.2018 15:00:00 33,3 24,4 29 16 - - SSE 1006,8 16 -
19.06.2018 14:00:00 35,0 24,4 26 14 - - S 1007,9 16 -
19.06.2018 13:00:00 35,0 23,3 26 14 - - S 1008,4 16 0,0
19.06.2018 12:00:00 33,9 24,4 26 14 - - SSW 1009,2 16 -
19.06.2018 11:00:00 30,6 25,0 26 14 - - S 1009,8 16 -
19.06.2018 10:00:00 29,4 25,6 26 14 - - S 1009,3 16 -
19.06.2018 09:00:00 27,2 25,6 15 8 - - S 1009,0 16 -
19.06.2018 08:00:00 26,1 25,0 9 5 - - SSE 1009,4 16 -
19.06.2018 07:00:00 25,6 24,4 11 6 - - SE 1009,6 16 -
19.06.2018 06:00:00 25,6 24,4 15 8 - - SSE 1008,9 16 -
19.06.2018 05:00:00 25,6 24,4 11 6 - - SE 1008,7 16 -
19.06.2018 04:00:00 25,6 24,4 24 13 - - SE 1009,2 16 2,3
19.06.2018 03:00:00 27,2 26,1 13 7 - - ESE 1009,1 16 -
19.06.2018 02:00:00 27,2 25,6 11 6 - - SE 1009,8 16 -
19.06.2018 01:00:00 27,2 26,1 15 8 - - SE 1010,5 16 -
19.06.2018 00:00:00 27,8 26,1 15 8 - - SE 1011,6 16 -
18.06.2018 23:00:00 27,8 25,6 15 8 - - SE 1011,3 16 -
18.06.2018 22:00:00 27,2 25,6 21 11 - - SSE 1010,4 16 -
18.06.2018 21:00:00 27,2 24,4 13 7 - - ESE 1010,3 16 -
18.06.2018 20:00:00 28,3 23,9 18 10 - - SSE 1009,1 16 0,0
18.06.2018 19:00:00 28,9 26,1 21 11 - - SSE 1009,5 16 0,0
18.06.2018 18:00:00 30,0 24,4 26 14 - - SSE 1009,8 16 -
18.06.2018 17:00:00 30,0 26,1 22 12 - - SE 1009,5 16 -
18.06.2018 16:00:00 31,1 25,6 29 16 - - SSE 1009,7 16 -
18.06.2018 15:00:00 31,1 25,0 26 14 - - SE 1010,0 16 -
18.06.2018 14:00:00 30,0 25,0 18 10 - - SSE 1010,3 16 -
18.06.2018 13:00:00 30,0 25,6 16 9 - - SE 1011,2 16 -
18.06.2018 12:00:00 29,4 25,0 9 5 - - SSE 1011,2 16 -
18.06.2018 11:00:00 28,3 25,6 18 10 - - S 1011,0 16 -
18.06.2018 10:00:00 27,2 26,1 11 6 - - ESE 1011,1 16 -
18.06.2018 09:00:00 26,1 25,0 11 6 - - ESE 1010,9 16 0,8
18.06.2018 08:00:00 25,6 24,4 15 8 - - S 1010,7 16 0,5
18.06.2018 07:00:00 25,6 24,4 13 7 - - SE 1010,4 16 5,8
18.06.2018 06:00:00 26,7 25,0 21 11 - - S 1009,8 11 2,3
18.06.2018 05:00:00 27,2 25,6 15 8 - - S 1009,7 16 0,5
18.06.2018 04:00:00 27,2 26,7 0 0 - - N 1009,9 16 2,5
18.06.2018 03:00:00 27,8 26,7 16 9 - - SSE 1010,0 16 3,6
18.06.2018 02:00:00 28,3 26,1 11 6 - - S 1010,4 16 0,0
18.06.2018 01:00:00 27,8 26,1 9 5 - - S 1011,4 16 0,0
18.06.2018 00:00:00 28,3 26,1 9 5 - - SE 1011,8 16 -
17.06.2018 23:00:00 27,8 25,6 11 6 - - SSE 1011,3 16 -
17.06.2018 22:00:00 28,3 26,1 11 6 - - SE 1010,5 16 -
17.06.2018 21:00:00 28,9 25,6 18 10 - - ESE 1010,4 16 -
17.06.2018 20:00:00 30,0 25,6 22 12 - - ESE 1009,9 16 -
17.06.2018 19:00:00 31,7 23,9 26 14 - - ESE 1009,7 16 -
17.06.2018 18:00:00 32,8 24,4 24 13 - - ESE 1009,0 16 -
17.06.2018 17:00:00 33,3 23,9 21 11 - - E 1009,1 16 -
17.06.2018 16:00:00 31,7 25,0 9 5 - - ESE 1009,3 16 -
17.06.2018 15:00:00 27,8 25,6 15 8 - - E 1010,3 16 0,3
17.06.2018 14:00:00 26,1 24,4 24 13 - - NE 1010,4 16 1,3
17.06.2018 13:00:00 33,3 23,9 16 9 - - ESE 1010,5 16 0,0
17.06.2018 12:00:00 33,3 22,2 24 13 - - S 1010,4 16 -
17.06.2018 11:00:00 33,3 22,8 15 8 - - SE 1010,4 16 -
17.06.2018 10:00:00 30,6 23,9 11 6 - - SSE 1010,5 16 -
17.06.2018 09:00:00 29,4 25,0 11 6 - - SE 1010,6 16 -
17.06.2018 08:00:00 27,2 25,6 5 3 - - ENE 1010,2 16 -
17.06.2018 07:00:00 25,0 23,9 8 4 - - ENE 1009,8 16 0,0
17.06.2018 06:00:00 25,0 23,9 0 0 - - N 1009,4 16 -
17.06.2018 05:00:00 25,6 23,9 0 0 - - N 1009,1 16 -
17.06.2018 04:00:00 26,1 24,4 0 0 - - N 1009,4 16 -
17.06.2018 03:00:00 26,7 25,0 5 3 - - ESE 1010,1 16 -
17.06.2018 02:00:00 26,7 25,0 9 5 - - ESE 1010,5 16 -
17.06.2018 01:00:00 27,2 24,4 5 3 - - ESE 1011,0 16 0,0
17.06.2018 00:00:00 27,2 24,4 8 4 - - E 1011,0 16 -
16.06.2018 23:00:00 27,8 23,9 8 4 - - E 1010,8 16 -
16.06.2018 22:00:00 28,3 24,4 11 6 - - ESE 1010,0 16 -
16.06.2018 21:00:00 28,9 23,9 15 8 - - ESE 1009,7 16 -
16.06.2018 20:00:00 29,4 23,3 22 12 - - ESE 1009,6 16 -
16.06.2018 19:00:00 30,6 22,8 24 13 - - ESE 1009,2 16 0,0
16.06.2018 18:00:00 31,1 23,3 24 13 - - E 1008,8 16 -
16.06.2018 17:00:00 32,8 23,3 29 16 - - ESE 1009,3 16 -
16.06.2018 16:00:00 33,9 23,3 29 16 - - ESE 1009,4 16 -
16.06.2018 15:00:00 34,4 22,8 28 15 - - SE 1009,7 16 -
16.06.2018 14:00:00 33,9 23,3 24 13 - - ESE 1009,7 16 -
16.06.2018 13:00:00 33,9 22,8 24 13 - - SE 1010,1 16 0,0
16.06.2018 12:00:00 33,3 23,3 28 15 - - SSE 1010,7 16 -
16.06.2018 11:00:00 33,3 22,8 28 15 - - SE 1010,7 16 -
16.06.2018 10:00:00 30,6 22,8 28 15 - - SE 1010,8 16 -
16.06.2018 09:00:00 30,0 24,4 22 12 - - SE 1010,7 16 -
16.06.2018 08:00:00 27,8 25,6 16 9 - - ESE 1010,5 16 -
16.06.2018 07:00:00 26,7 25,0 9 5 - - ESE 1010,1 16 0,0
16.06.2018 06:00:00 27,2 25,0 11 6 - - SE 1009,8 16 -
16.06.2018 05:00:00 27,2 25,0 13 7 - - SE 1010,0 16 -
16.06.2018 04:00:00 27,2 25,0 16 9 - - SE 1010,2 16 -
16.06.2018 03:00:00 27,8 25,0 18 10 - - SE 1010,8 16 -
16.06.2018 02:00:00 27,8 25,0 16 9 - - SE 1011,3 16 -
16.06.2018 01:00:00 28,3 25,0 22 12 - - SE 1011,8 16 0,0
16.06.2018 00:00:00 27,8 25,0 16 9 - - ESE 1011,7 16 -
15.06.2018 23:00:00 27,8 25,0 18 10 - - ESE 1011,8 16 -
15.06.2018 22:00:00 28,3 24,4 18 10 - - ESE 1011,1 16 -
15.06.2018 21:00:00 28,9 23,9 21 11 - - E 1010,3 16 -
15.06.2018 20:00:00 29,4 23,3 21 11 - - ESE 1009,8 16 -
15.06.2018 19:00:00 31,1 23,9 26 14 - - ESE 1009,3 16 -
15.06.2018 18:00:00 32,8 22,8 26 14 - - SE 1009,5 16 -
15.06.2018 17:00:00 33,3 23,3 26 14 - - ESE 1010,0 16 -
15.06.2018 16:00:00 33,9 23,3 26 14 - - E 1010,8 16 -
15.06.2018 15:00:00 33,9 22,8 24 13 - - SSE 1011,0 16 -
15.06.2018 14:00:00 35,0 22,2 24 13 - - ESE 1011,5 16 -
15.06.2018 13:00:00 34,4 22,2 24 13 - - ESE 1011,6 16 0,0
15.06.2018 12:00:00 33,9 22,2 22 12 - - SSE 1012,0 16 -
15.06.2018 11:00:00 32,8 23,3 31 17 - - SE 1012,1 16 -
15.06.2018 10:00:00 31,7 23,9 24 13 - - SSE 1012,0 16 -
15.06.2018 09:00:00 30,0 24,4 24 13 - - SE 1012,0 16 -
15.06.2018 08:00:00 27,8 24,4 8 4 - - E 1011,7 16 -
15.06.2018 07:00:00 26,1 23,9 8 4 - - SE 1011,8 16 -
15.06.2018 06:00:00 26,1 23,3 9 5 - - ESE 1012,0 16 -
15.06.2018 05:00:00 27,2 24,4 15 8 - - SE 1011,8 16 -
15.06.2018 04:00:00 27,2 25,0 11 6 - - SE 1012,3 16 -
15.06.2018 03:00:00 27,2 25,0 11 6 - - SE 1012,8 16 -
15.06.2018 02:00:00 27,2 25,0 9 5 - - ESE 1013,1 16 0,0
15.06.2018 01:00:00 27,8 25,0 11 6 - - ESE 1013,5 16 0,0
15.06.2018 00:00:00 28,3 25,0 13 7 - - ESE 1013,7 16 -
14.06.2018 23:00:00 28,3 25,0 21 11 - - ESE 1013,7 16 -
14.06.2018 22:00:00 28,3 24,4 18 10 - - E 1013,4 16 -
14.06.2018 21:00:00 28,9 23,9 16 9 - - ESE 1012,6 16 -
14.06.2018 20:00:00 30,0 23,3 24 13 - - ESE 1012,1 16 -
14.06.2018 19:00:00 31,1 23,3 26 14 - - E 1012,1 16 -
14.06.2018 18:00:00 32,2 22,8 26 14 - - E 1012,4 16 -
14.06.2018 17:00:00 33,3 22,8 24 13 - - E 1012,7 16 -
14.06.2018 16:00:00 32,8 23,3 28 15 - - ESE 1013,2 16 -
14.06.2018 15:00:00 34,4 23,3 29 16 - - E 1013,3 16 -
14.06.2018 14:00:00 33,9 22,8 22 12 - - ESE 1014,3 16 -
14.06.2018 13:00:00 33,9 22,8 29 16 - - E 1014,8 16 0,0
14.06.2018 12:00:00 33,9 22,8 18 10 - - ESE 1015,2 16 -
14.06.2018 11:00:00 32,8 22,8 22 12 - - SE 1015,4 16 -
14.06.2018 10:00:00 31,1 22,2 24 13 - - SSE 1015,6 16 -
14.06.2018 09:00:00 30,0 24,4 13 7 - - ESE 1015,5 16 -
14.06.2018 08:00:00 26,7 25,0 0 0 - - N 1015,1 16 -
14.06.2018 07:00:00 25,0 23,9 0 0 - - N 1014,7 16 0,0
14.06.2018 06:00:00 24,4 23,3 0 0 - - N 1014,2 16 -
14.06.2018 05:00:00 24,4 22,8 9 5 - - E 1013,9 16 -
14.06.2018 04:00:00 24,4 22,8 0 0 - - N 1014,3 16 -

tt = temperature
td = dewpoint
ff = wind speed
fx = gusts
dd = wind direction
ppp = reduced air pressure
vv = visibility
rr = precipitation

Next stations